Time,TemperatureF,DewpointF,PressureIn,WindDirection,WindDirectionDegrees,WindSpeedMPH,WindSpeedGustMPH,Humidity,HourlyPrecipIn,Conditions,Clouds,dailyrainin,SoftwareType,DateUTC
2015-02-27 00:22:00,52.0,46.0,29.88,NNW,327,4.0,6.0,80,0.00,,,0.00,,2015-02-27 08:22:00,
2015-02-27 00:42:00,52.0,46.0,29.87,NNW,346,4.0,6.0,80,0.00,,,0.00,,2015-02-27 08:42:00,
2015-02-27 00:52:00,52.0,46.0,29.87,NNW,338,4.0,6.0,79,0.00,,,0.00,,2015-02-27 08:52:00,
2015-02-27 01:22:00,52.0,46.0,29.87,North,354,3.0,6.0,80,0.00,,,0.00,,2015-02-27 09:22:00,
2015-02-27 01:43:00,51.0,46.0,29.87,NW,310,1.0,3.0,82,0.00,,,0.00,,2015-02-27 09:43:00,
2015-02-27 01:52:00,51.0,46.0,29.87,SW,218,1.0,3.0,83,0.00,,,0.00,,2015-02-27 09:52:00,
2015-02-27 02:23:00,50.0,46.0,29.86,ESE,109,0.0,4.0,85,0.00,,,0.00,,2015-02-27 10:23:00,
2015-02-27 02:43:00,49.0,45.0,29.86,WSW,241,1.0,4.0,87,0.00,,,0.00,,2015-02-27 10:43:00,
2015-02-27 02:52:00,49.0,45.0,29.85,NE,34,2.0,6.0,87,0.00,,,0.00,,2015-02-27 10:52:00,
2015-02-27 03:12:00,50.0,46.0,29.85,NNW,343,3.0,5.0,85,0.00,,,0.00,,2015-02-27 11:12:00,
2015-02-27 03:22:00,50.0,46.0,29.85,NNW,342,3.0,5.0,85,0.00,,,0.00,,2015-02-27 11:22:00,
2015-02-27 03:42:00,50.0,46.0,29.84,NNW,343,4.0,6.0,85,0.00,,,0.00,,2015-02-27 11:42:00,
2015-02-27 03:53:00,50.0,46.0,29.84,NW,322,3.0,6.0,85,0.00,,,0.00,,2015-02-27 11:53:00,
2015-02-27 04:12:00,50.0,45.0,29.85,NNW,338,3.0,5.0,84,0.00,,,0.00,,2015-02-27 12:12:00,
2015-02-27 04:22:00,51.0,46.0,29.85,NNW,340,3.0,6.0,83,0.00,,,0.00,,2015-02-27 12:22:00,
2015-02-27 04:43:00,50.0,45.0,29.86,NW,312,2.0,3.0,84,0.00,,,0.00,,2015-02-27 12:43:00,
2015-02-27 04:53:00,49.0,45.0,29.85,WSW,245,1.0,3.0,86,0.00,,,0.00,,2015-02-27 12:53:00,
2015-02-27 05:12:00,49.0,46.0,29.85,NW,307,1.0,2.0,88,0.00,,,0.00,,2015-02-27 13:12:00,
2015-02-27 05:22:00,48.0,45.0,29.85,North,6,0.0,2.0,90,0.00,,,0.00,,2015-02-27 13:22:00,
2015-02-27 05:42:00,48.0,45.0,29.85,NNE,22,0.0,2.0,91,0.00,,,0.00,,2015-02-27 13:42:00,
2015-02-27 05:52:00,48.0,46.0,29.86,WSW,248,1.0,2.0,92,0.00,,,0.00,,2015-02-27 13:52:00,
2015-02-27 06:12:00,48.0,46.0,29.85,North,349,1.0,2.0,92,0.00,,,0.00,,2015-02-27 14:12:00,
2015-02-27 06:22:00,48.0,46.0,29.85,NNW,338,0.0,3.0,92,0.00,,,0.00,,2015-02-27 14:22:00,
2015-02-27 06:42:00,48.0,46.0,29.84,NNW,338,1.0,3.0,93,0.00,,,0.00,,2015-02-27 14:42:00,
2015-02-27 06:53:00,48.0,46.0,29.84,NNW,338,2.0,3.0,94,0.00,,,0.00,,2015-02-27 14:53:00,
2015-02-27 07:11:00,48.0,47.0,29.83,NNE,22,1.0,3.0,95,0.00,,,0.00,,2015-02-27 15:11:00,
2015-02-27 07:22:00,47.0,46.0,29.84,North,357,1.0,2.0,95,0.00,,,0.00,,2015-02-27 15:22:00,
2015-02-27 07:43:00,48.0,47.0,29.83,NNW,335,1.0,2.0,95,0.00,,,0.00,,2015-02-27 15:43:00,
2015-02-27 07:53:00,48.0,47.0,29.83,WNW,283,1.0,2.0,96,0.00,,,0.00,,2015-02-27 15:53:00,
2015-02-27 08:13:00,49.0,48.0,29.83,NNW,334,2.0,4.0,96,0.00,,,0.00,,2015-02-27 16:13:00,
2015-02-27 08:23:00,50.0,49.0,29.82,North,352,2.0,6.0,96,0.00,,,0.00,,2015-02-27 16:23:00,
2015-02-27 08:43:00,50.0,49.0,29.83,WSW,250,1.0,4.0,96,0.00,,,0.00,,2015-02-27 16:43:00,
2015-02-27 08:53:00,50.0,49.0,29.83,West,274,2.0,5.0,95,0.00,,,0.00,,2015-02-27 16:53:00,
2015-02-27 09:12:00,51.0,50.0,29.84,North,6,1.0,3.0,95,0.00,,,0.00,,2015-02-27 17:12:00,
2015-02-27 09:22:00,51.0,49.0,29.84,NNE,18,1.0,3.0,94,0.00,,,0.00,,2015-02-27 17:22:00,
2015-02-27 09:43:00,52.0,50.0,29.83,North,3,2.0,3.0,93,0.00,,,0.00,,2015-02-27 17:43:00,
2015-02-27 09:53:00,52.0,50.0,29.83,NNE,16,1.0,3.0,92,0.00,,,0.00,,2015-02-27 17:53:00,
2015-02-27 10:22:00,53.0,49.0,29.82,SW,236,1.0,4.0,87,0.00,,,0.00,,2015-02-27 18:22:00,
2015-02-27 10:43:00,54.0,50.0,29.82,NNW,338,1.0,3.0,86,0.00,,,0.00,,2015-02-27 18:43:00,
2015-02-27 10:53:00,54.0,49.0,29.82,West,260,1.0,5.0,84,0.00,,,0.00,,2015-02-27 18:53:00,
2015-02-27 11:23:00,55.0,49.0,29.81,West,270,2.0,4.0,79,0.00,,,0.00,,2015-02-27 19:23:00,
2015-02-27 11:43:00,55.0,48.0,29.80,North,3,2.0,6.0,78,0.00,,,0.00,,2015-02-27 19:43:00,
2015-02-27 11:53:00,55.0,49.0,29.80,WNW,292,2.0,5.0,79,0.00,,,0.00,,2015-02-27 19:53:00,
2015-02-27 12:03:00,55.0,49.0,29.80,WNW,292,2.0,5.0,79,0.00,,,0.00,,2015-02-27 20:03:00,
2015-02-27 12:11:00,55.0,49.0,29.80,WNW,292,2.0,5.0,79,0.00,,,0.00,,2015-02-27 20:11:00,
2015-02-27 12:22:00,56.0,49.0,29.79,SW,229,3.0,5.0,78,0.00,,,0.00,,2015-02-27 20:22:00,
2015-02-27 12:42:00,56.0,49.0,29.78,WNW,283,1.0,4.0,76,0.00,,,0.00,,2015-02-27 20:42:00,
2015-02-27 12:53:00,56.0,48.0,29.78,West,266,2.0,6.0,75,0.00,,,0.00,,2015-02-27 20:53:00,
2015-02-27 13:23:00,56.0,49.0,29.76,WSW,253,3.0,6.0,76,0.00,,,0.00,,2015-02-27 21:23:00,
2015-02-27 13:43:00,56.0,49.0,29.75,WNW,296,3.0,6.0,76,0.00,,,0.00,,2015-02-27 21:43:00,
2015-02-27 13:53:00,57.0,49.0,29.74,NNW,341,3.0,6.0,75,0.00,,,0.00,,2015-02-27 21:53:00,
2015-02-27 14:12:00,56.0,48.0,29.74,NW,318,3.0,7.0,74,0.00,,,0.00,,2015-02-27 22:12:00,
2015-02-27 14:23:00,56.0,48.0,29.73,WSW,248,2.0,6.0,74,0.00,,,0.00,,2015-02-27 22:23:00,
2015-02-27 14:43:00,56.0,48.0,29.73,WNW,283,3.0,10.0,75,0.00,,,0.00,,2015-02-27 22:43:00,
2015-02-27 14:53:00,56.0,48.0,29.73,NNW,344,3.0,6.0,75,0.00,,,0.00,,2015-02-27 22:53:00,
2015-02-27 15:12:00,56.0,48.0,29.72,NW,307,3.0,5.0,74,0.00,,,0.00,,2015-02-27 23:12:00,
2015-02-27 15:22:00,55.0,47.0,29.73,NNW,334,3.0,4.0,75,0.00,,,0.00,,2015-02-27 23:22:00,